Location: Eppenbrunn
(49.1158°N, 7.5601°E)
Time: 14:46:05
(UTC+00:00)

IGS 5A - Pass Details

Date: 12 August 2020
Orbit: 583 x 588 km, 97.6° (Epoch: 26 September)

Event Time Altitude Azimuth Distance (km) Brightness Sun altitude
Exits shadow 21:45:24 10° 232° (SW) 1,914 6.0 -21.8°
Maximum altitude 21:47:58 16° 270° (W) 1,571 5.9 -22.0°
Drops below altitude 10° 21:50:34 10° 309° (NW) 1,925 7.0 -22.2°
Sets 21:53:30 0° 331° (NNW) 2,832 8.5 -22.5°
